STARLINK-37114

Last updated on Sun Apr 12 2026 00:02:10 GMT+0000 (Coordinated Universal Time)

1 68561U 26070V 26101.50002315 -.01153705 41939-3 -25219-2 0 9991 2 68561 53.1583 220.1899 0000974 54.5994 154.8259 15.97553616 2655
UTC large
Height (km)
Speed (km/s)
/
Latitude / Longitude
Inclination (degrees)
Orbital Period (minutes)
Azimuth
Elevation
Range (km)
Doppler Factor

Next 0 passes for location: London (51.5072 / 0.1276)

Sorry there are no passes over London.
STARLINK-37114